Regional Weather Roundup
Issued by NWS

Home | Current Version | Previous Version | Graphics & Text | Print | Product List | Glossary On
Versions: 1 2 3 4 5 6 7 8 9 10 11 12 13 14 15 16 17 18 19 20 21 22 23 24 25 26 27 28 29 30 31 32 33 34 35 36 37 38 39 40 41 42 43 44 45 46 47 48 49 50
000
ASUS43 KOAX 242002
RWRNE

WEATHER ROUNDUP FOR NEBRASKA
NATIONAL WEATHER SERVICE OMAHA NE
300 PM CDT THU JUL 24 2014

NOTES: SATELLITE DATA IS BEING USED TO AUGMENT CLOUD COVER ABOVE
       12000 FEET.
       "FAIR" INDICATES FEW OR NO CLOUDS BELOW 12,000 FEET WITH NO
       SIGNIFICANT WEATHER AND/OR OBSTRUCTIONS TO VISIBILITY.

  * THESE STATIONS DO NOT REPORT WEATHER SUCH AS RAIN...SNOW OR FOG.

NEZ001>004-019>022-054>056-242100-
NEBRASKA PANHANDLE

CITY           SKY/WX    TMP DP  RH WIND       PRES   REMARKS
SCOTTSBLUFF    PTSUNNY  102  51  18 NW10      29.90F HX  99
ALLIANCE       MOSUNNY  102  45  14 W9G18     29.89F HX  98
CHADRON        SUNNY    107  48  14 NW12G23   29.78F HX 103
KIMBALL        PTSUNNY   86  46  24 S9G18     30.00F
SIDNEY         SUNNY     98  44  15 SW3       29.96F HX  94
$$

NEZ057>060-069>072-079>082-242100-
SOUTHWEST NEBRASKA

CITY           SKY/WX    TMP DP  RH WIND       PRES   REMARKS
NORTH PLATTE   SUNNY     96  69  41 SE14G23   29.88F HX 102
IMPERIAL       SUNNY    104  45  13 SW15G22   29.90F HX 100
LEXINGTON      SUNNY     91  70  50 S24G30    29.92F HX  96
MCCOOK         SUNNY    100  64  30 S20G26    29.89F HX 102
OGALLALA       SUNNY     99  54  21 S15       29.88F HX  97
$$

NEZ005>010-023>029-035>040-094-242100-
NORTH CENTRAL NEBRASKA

CITY           SKY/WX    TMP DP  RH WIND       PRES   REMARKS
VALENTINE      SUNNY    101  66  31 S23G33    29.78F HX 105
AINSWORTH      SUNNY     91  64  40 S29       29.83F HX  93
BROKEN BOW     SUNNY     89  69  51 S26G33    29.92F HX  93
O`NEILL        SUNNY     86  64  47 S26G37    29.88F
ORD            SUNNY     86  68  54 S20G31    29.91F
$$

NEZ041-046>049-061>064-073>077-083>087-242100-
SOUTH CENTRAL NEBRASKA

CITY           SKY/WX    TMP DP  RH WIND       PRES   REMARKS
GRAND ISLAND   SUNNY     85  67  54 SE22G31   29.96F
AURORA         SUNNY     85  66  53 S17G26    29.97F
HASTINGS       SUNNY     87  64  46 S16G29    29.97F
HEBRON         SUNNY     86  62  43 S17G24    29.99F
HOLDREGE       SUNNY     91  66  44 SE23G29   29.94F HX  93
KEARNEY *        N/A     90  70  51 SE23G30   29.96  HX  95
YORK           SUNNY     84  66  54 SE21G29   29.98F
$$

NEZ011>018-030>034-042>045-242100-
NORTHEAST NEBRASKA

CITY           SKY/WX    TMP DP  RH WIND       PRES   REMARKS
NORFOLK        SUNNY     84  63  49 SE24G30   29.95F
ALBION         SUNNY     83  64  54 S24G30    29.95F
BLAIR          MOSUNNY   79  62  56 SE9G17    30.02S
COLUMBUS *     SUNNY     82  64  54 S20G29    29.96F
FREMONT        SUNNY     84  62  46 SE16G26   30.01R
TEKAMAH        MOSUNNY   83  62  49 E15       30.03R
WAYNE          MOSUNNY   84  65  53 SE22      29.98F
$$

NEZ050>053-065>068-078-088>093-242100-
SOUTHEAST NEBRASKA

CITY           SKY/WX    TMP DP  RH WIND       PRES   REMARKS
LINCOLN        SUNNY     87  62  43 S24       29.99F
OMAHA EPPLEY   MOSUNNY   83  60  45 SE18G25   30.01F
BEATRICE       SUNNY     83  65  53 SE16G24   30.00F
FALLS CITY     SUNNY     82  62  50 S17       30.03F
NEBRASKA CITY  SUNNY     81  59  48 S16G25    30.04S
PLATTSMOUTH    SUNNY     82  61  49 S15G21    30.03F
$$

NEZ044-045-051>053-067-242100-
OMAHA AREA

CITY           SKY/WX    TMP DP  RH WIND       PRES   REMARKS
OMAHA EPPLEY   MOSUNNY   83  60  45 SE18G25   30.01F
BLAIR          MOSUNNY   79  62  56 SE9G17    30.02S
FREMONT        SUNNY     84  62  46 SE16G26   30.01R
MILLARD        SUNNY     82  64  54 SE15G21   30.00F
OFFUTT AFB     MOSUNNY   83  64  52 S16G23    30.00F
PLATTSMOUTH    SUNNY     82  61  49 S15G21    30.03F
WAHOO          FAIR      84  62  47 S16G23    29.99F
$$


USA.gov is the U.S. government's official web portal to all federal, state and local government web resources and services.